Location: Zilina
(0.0000°N, 18.7333°E)
Time: 17:19:19
(UTC+02:00)

Daily predictions for brighter satellites

Satellite Brightness Start Highest point End
(mag) Time Altitude Azimuth Time Altitude Azimuth Time Altitude Azimuth
Ariane H10-3 4.4 18:39:30 10° WSW 18:44:54 70° S 19:19:06 11° E
SL-08 RB Rocket 3.6 19:00:46 10° SSE 19:05:15 78° ENE 19:09:44 10° N
Centaur Rocket 4.5 19:02:00 10° W 19:06:03 58° N 19:18:24 10° ENE
Cosmos 1992 Rocket 4.3 19:01:06 10° NNW 19:06:18 76° WSW 19:11:31 10° S
Cosmos 2369 3.7 19:01:48 10° S 19:07:29 68° ESE 19:13:08 10° NNE
SL-8 R/B 4.2 19:03:12 10° NW 19:07:57 65° SW 19:12:43 10° SSE
CZ-4B DEB 4.5 19:04:00 10° SSE 19:09:10 44° ENE 19:14:19 10° N
Cosmos 1980 Rocket 2.2 19:06:15 10° S 19:11:54 68° ESE 19:17:31 10° NNE
Cosmos 1850 Rocket 4.2 19:08:04 10° S 19:13:01 46° ESE 19:17:56 10° NNE
Cosmos 2278 4.3 19:11:50 10° SSE 19:16:55 33° ESE 19:21:58 10° NE
ARGOS 4.1 19:11:58 10° S 19:17:11 53° WSW 19:22:22 10° NNW
Cosmos 1733 3.7 19:13:53 10° SSE 19:17:22 35° E 19:20:50 10° NNE
ARGOS Delta rocket 4.1 19:14:08 10° N 19:19:12 76° W 19:24:00 10° SSW
Lacrosse 5 rocket 1.6 19:15:39 10° NW 19:19:13 58° WSW 19:22:44 10° SSE
GPS 2-17 Rocket1 3.1 19:17:30 10° WSW 19:21:47 65° NNW 19:25:25 14° ENE
Cosmos 405 Rocket 3.2 19:18:06 10° NNW 19:22:01 65° W 19:25:52 10° S
SL-16 R/B 3.8 19:20:33 10° SE 19:23:21 14° ESE 19:23:22 14° ESE
Aurora 2 Rocket 4.1 19:21:03 10° W 19:24:50 26° SSW 19:27:53 10° SSE
Cosmos 1842 3.1 19:23:47 10° N 19:27:37 72° E 19:31:29 10° S
Meteor 2-15 4.5 19:21:54 10° N 19:27:53 58° E 19:33:55 10° SSE
SL-27 R/B 2.1 19:25:28 10° N 19:28:45 75° E 19:31:59 10° SSE
Cosmos 1726 3.0 19:29:44 10° SSE 19:32:48 26° E 19:33:18 25° E
Cosmos 2297 Rocket 4.0 19:30:37 10° NE 19:31:29 12° NE 19:31:29 12° NE
Cosmos 1707 3.1 19:32:50 10° NNE 19:36:22 38° E 19:39:56 10° SSE
ARIANE 5 R/B 3.0 19:31:02 10° W 19:36:27 84° N 19:38:13 27° E
ATLAS 2A CENTAUR R/B 1.7 19:34:00 10° NW 19:37:15 26° NNE 19:37:40 25° NE
ARIANE 5 R/B 4.2 19:28:27 10° W 19:38:32 43° SSW 19:41:14 19° SE
HETE-2 4.5 19:34:22 10° W 19:38:35 86° S 19:40:32 31° E
Cosmos 1741 Rocket 4.0 19:33:17 10° SSW 19:38:37 90° NE 19:43:55 10° NNE
Meteor 2-14 Rocket 4.5 19:34:17 10° S 19:40:13 53° E 19:46:06 10° NNE
Cosmos 1733 Rocket 3.0 19:38:24 10° S 19:42:46 86° W 19:47:08 10° N
Ariane H10 3.0 19:34:54 10° W 19:43:28 59° S 19:44:50 32° ESE
OAO 3 Rocket 3.9 19:39:14 10° WNW 19:43:48 48° SW 19:47:28 15° SSE
Cosmos 1703 Rocket 4.0 19:39:41 10° NNW 19:43:58 63° W 19:48:17 10° S
PRC 14 4.5 19:41:13 10° NW 19:44:33 89° SW 19:46:16 30° SE
Okean 3 3.9 19:41:16 10° NNW 19:45:26 62° W 19:49:35 10° S
Meteor 2-15 Rocket 4.4 19:41:14 10° N 19:47:17 65° E 19:53:22 10° SSE
SWIFT 4.3 19:46:10 10° SSW 19:48:49 16° SSE 19:49:20 16° SSE
Cosmos 1805 3.6 19:48:38 10° SSW 19:52:27 63° W 19:56:15 10° N
Ariane H10 4.0 19:43:55 10° W 19:52:40 38° SSW 19:54:01 27° SSE
Nadezhda 4 Rocket 4.0 19:50:19 10° S 19:56:27 56° E 20:02:36 10° NNE
MINOTAUR IV R/B 4.5 19:53:35 10° SSW 19:58:09 86° ESE 20:01:41 16° NNE
IRIDIUM 106 4.3 19:53:20 10° SSE 19:58:27 56° E 20:03:30 10° NNE
Okean O Rocket 2.0 20:00:00 42° NE 20:00:00 42° NE 20:03:18 10° N
Landsat 5 4.1 19:57:39 10° N 20:02:02 61° WNW 20:06:19 10° SSW
Timation 1 Rocket 4.3 19:57:02 10° NNW 20:02:58 83° WSW 20:08:56 10° SSE
CZ-4C R/B 3.6 19:56:32 10° N 20:04:33 42° ENE 20:07:02 35° ESE
BLOCK DM-SL R/B 2.5 20:03:40 10° W 20:04:49 23° W 20:04:49 23° W
Ariane H10-3 3.2 20:02:11 10° W 20:06:01 42° NNW 20:06:01 42° NNW
ATLAS 5 CENTAUR R/B 4.2 19:18:38 10° WSW 20:09:37 54° NNW 20:17:02 21° NE
In-Cosmos 22 4.1 20:04:45 10° N 20:10:01 79° W 20:15:22 10° S
Meteor 2-16 Rocket 4.4 20:05:33 10° S 20:11:30 56° E 20:13:35 38° NE
GPS 2-12 Rocket1 3.0 20:12:09 10° WNW 20:16:28 76° SW 20:16:28 76° SW
ARIANE 3 DEB 3.7 20:21:03 10° WSW 20:25:59 48° SW 20:25:59 48° SW
ATLAS 3B R/B 2.9 20:22:26 10° NNW 20:30:09 86° WSW 20:34:17 30° SSE
YAOGAN 1 4.0 20:31:09 10° SSW 20:35:05 35° WSW 20:39:01 10° NW
CZ-4B R/B 4.2 20:30:33 10° S 20:35:30 42° WSW 20:40:28 10° NNW
Atlas 2A Centaur Rocket 4.5 20:29:52 10° WSW 20:35:57 77° NNW 21:20:18 10° ENE
USA 267 3.1 20:40:13 85° ENE 20:40:15 85° NE 20:46:49 10° NW
Mugunghwa Rocket 4.1 20:35:16 10° WNW 20:43:05 83° NNE 20:43:05 83° NNE
Cosmos 2322 Rocket 4.0 20:37:51 10° S 20:39:25 19° S 20:39:25 19° S
ARIANE 5 DEB (SYLDA) 4.3 20:32:08 10° W 20:45:21 63° SSW 20:45:21 63° SSW
ARIANE 5 DEB (SYLDA) 4.0 20:30:29 10° W 21:03:07 81° S 21:03:31 79° SSE
SL-16 R/B 3.7 21:01:56 10° SW 21:05:22 31° WSW 21:05:22 31° WSW
Cosmos 2297 Rocket 4.4 21:11:59 10° NW 21:13:24 17° NW 21:13:24 17° NW
ARIANE 5 R/B 4.3 21:15:28 10° W 21:56:24 - E 21:16:25 21° W
